When you browse on this site, cookies collect data to enhance your experience and personalize the content and advertising you see.
Visit our Privacy Policy to learn more. By continuing to use the site, you agree to this use of cookies and data.
  • en Suisse
  • Liste des pays
  • À 7 jours
  • Température de l'eau
  • Carte satellitaire
  • Carte météo
  • Widgets météo
  • user-avatar
    Se connecter

    Météo par heure à Victoria

    Ce jour, 23 Mai, Jeudi

    Heure Température Précipitation Vent Pression Humidité
    00:00 +12°C° 0 mm 1 m/s 759 mmHg 86%
    01:00 +11°C° 0 mm 1 m/s 759 mmHg 88%
    02:00 +11°C° 0 mm 1 m/s 759 mmHg 88%
    03:00 +9°C° 0 mm 2 m/s 758 mmHg 89%
    04:00 +9°C° 0 mm 2 m/s 758 mmHg 89%
    05:00 +9°C° 0 mm 2 m/s 758 mmHg 89%
    06:00 +8°C° 0 mm 2 m/s 758 mmHg 89%
    07:00 +8°C° 0 mm 2 m/s 758 mmHg 89%
    08:00 +10°C° 0 mm 2 m/s 759 mmHg 83%
    09:00 +13°C° 0 mm 2 m/s 759 mmHg 76%
    10:00 +15°C° 0 mm 2 m/s 759 mmHg 69%
    11:00 +16°C° 0 mm 3 m/s 758 mmHg 64%
    12:00 +18°C° 0 mm 3 m/s 757 mmHg 59%
    13:00 +19°C° 0 mm 3 m/s 757 mmHg 53%
    14:00 +19°C° 0 mm 3 m/s 756 mmHg 55%
    15:00 +19°C° 0 mm 2 m/s 756 mmHg 57%
    16:00 +19°C° 0 mm 2 m/s 755 mmHg 59%
    17:00 +17°C° 0 mm 2 m/s 755 mmHg 62%
    18:00 +14°C° 0 mm 3 m/s 755 mmHg 65%
    19:00 +13°C° 0 mm 3 m/s 756 mmHg 68%
    20:00 +12°C° 0 mm 3 m/s 755 mmHg 67%
    21:00 +12°C° 0 mm 3 m/s 755 mmHg 66%
    22:00 +11°C° 0 mm 4 m/s 755 mmHg 66%
    23:00 +12°C° 0 mm 4 m/s 755 mmHg 63%

    Demain, 24 Mai, Vendredi

    Heure Température Précipitation Vent Pression Humidité
    00:00 +12°C° 0 mm 5 m/s 754 mmHg 61%
    01:00 +12°C° 0 mm 5 m/s 754 mmHg 59%
    02:00 +12°C° 0 mm 5 m/s 754 mmHg 58%
    03:00 +12°C° 0 mm 4 m/s 753 mmHg 57%
    04:00 +12°C° 0 mm 4 m/s 753 mmHg 56%
    05:00 +12°C° 0 mm 4 m/s 753 mmHg 59%
    06:00 +11°C° 0 mm 4 m/s 753 mmHg 63%
    07:00 +11°C° 0 mm 4 m/s 753 mmHg 66%
    08:00 +11°C° 0 mm 4 m/s 753 mmHg 66%
    09:00 +12°C° 0 mm 5 m/s 753 mmHg 66%
    10:00 +13°C° 0 mm 5 m/s 753 mmHg 66%
    11:00 +14°C° 0 mm 5 m/s 752 mmHg 63%
    12:00 +16°C° 0 mm 5 m/s 752 mmHg 61%
    13:00 +17°C° 0 mm 5 m/s 751 mmHg 58%
    14:00 +19°C° 0 mm 4 m/s 751 mmHg 59%
    15:00 +19°C° 0 mm 4 m/s 751 mmHg 60%
    16:00 +20°C° 0 mm 3 m/s 750 mmHg 61%
    17:00 +19°C° 0.1 mm 3 m/s 750 mmHg 65%
    18:00 +18°C° 0.1 mm 3 m/s 750 mmHg 70%
    19:00 +16°C° 0.1 mm 3 m/s 750 mmHg 74%
    20:00 +17°C° 0.1 mm 4 m/s 751 mmHg 70%
    21:00 +17°C° 0.1 mm 4 m/s 751 mmHg 67%
    22:00 +16°C° 0.1 mm 5 m/s 751 mmHg 64%
    23:00 +16°C° 0.1 mm 3 m/s 751 mmHg 68%

    Après-demain, 25 Mai, Samedi

    Heure Température Précipitation Vent Pression Humidité
    00:00 +15°C° 0.1 mm 2 m/s 750 mmHg 72%
    01:00 +14°C° 0.1 mm 1 m/s 750 mmHg 76%
    02:00 +14°C° 0 mm 1 m/s 750 mmHg 78%
    03:00 +14°C° 0 mm 1 m/s 750 mmHg 80%
    04:00 +14°C° 0 mm 1 m/s 750 mmHg 81%
    05:00 +14°C° 0 mm 1 m/s 750 mmHg 83%
    06:00 +13°C° 0 mm 1 m/s 750 mmHg 84%
    07:00 +13°C° 0 mm 1 m/s 750 mmHg 86%
    08:00 +14°C° 0 mm 1 m/s 750 mmHg 82%
    09:00 +15°C° 0 mm 2 m/s 750 mmHg 78%
    10:00 +17°C° 0 mm 2 m/s 750 mmHg 74%
    11:00 +18°C° 0 mm 3 m/s 749 mmHg 68%
    12:00 +19°C° 0 mm 3 m/s 749 mmHg 62%
    13:00 +20°C° 0 mm 4 m/s 748 mmHg 55%
    14:00 +19°C° 0 mm 4 m/s 748 mmHg 57%
    15:00 +19°C° 0 mm 3 m/s 748 mmHg 58%
    16:00 +19°C° 0 mm 3 m/s 748 mmHg 59%
    17:00 +18°C° 0.1 mm 3 m/s 748 mmHg 63%
    18:00 +16°C° 0.1 mm 2 m/s 748 mmHg 67%
    19:00 +15°C° 0.1 mm 2 m/s 748 mmHg 71%
    20:00 +14°C° 1.1 mm 2 m/s 748 mmHg 78%
    21:00 +14°C° 1.1 mm 2 m/s 748 mmHg 84%
    22:00 +14°C° 1.1 mm 2 m/s 748 mmHg 91%
    23:00 +12°C° 0.6 mm 3 m/s 748 mmHg 92%

    26 Mai, Dimanche

    Heure Température Précipitation Vent Pression Humidité
    00:00 +12°C° 0.6 mm 3 m/s 748 mmHg 93%
    01:00 +11°C° 0.6 mm 3 m/s 748 mmHg 94%
    02:00 +10°C° 0 mm 3 m/s 748 mmHg 94%
    03:00 +9°C° 0 mm 3 m/s 748 mmHg 95%
    04:00 +8°C° 0 mm 2 m/s 748 mmHg 95%
    05:00 +8°C° 0 mm 2 m/s 748 mmHg 96%
    06:00 +7°C° 0 mm 2 m/s 749 mmHg 96%
    07:00 +7°C° 0 mm 2 m/s 749 mmHg 96%
    08:00 +8°C° 0 mm 3 m/s 749 mmHg 90%
    09:00 +8°C° 0 mm 4 m/s 750 mmHg 85%
    10:00 +10°C° 0 mm 5 m/s 750 mmHg 79%
    11:00 +12°C° 0 mm 5 m/s 750 mmHg 73%
    12:00 +13°C° 0 mm 6 m/s 749 mmHg 66%
    13:00 +14°C° 0 mm 6 m/s 749 mmHg 60%
    14:00 +13°C° 0 mm 6 m/s 748 mmHg 60%
    15:00 +13°C° 0 mm 5 m/s 748 mmHg 61%
    16:00 +13°C° 0 mm 4 m/s 748 mmHg 61%
    17:00 +13°C° 0.2 mm 4 m/s 748 mmHg 67%
    18:00 +12°C° 0.2 mm 4 m/s 748 mmHg 72%
    19:00 +11°C° 0.2 mm 4 m/s 749 mmHg 78%
    20:00 +11°C° 0.1 mm 4 m/s 749 mmHg 82%
    21:00 +10°C° 0.1 mm 4 m/s 749 mmHg 85%
    22:00 +8°C° 0.1 mm 4 m/s 750 mmHg 89%
    23:00 +7°C° 0 mm 4 m/s 750 mmHg 90%

    27 Mai, Lundi

    Heure Température Précipitation Vent Pression Humidité
    00:00 +8°C° 0 mm 3 m/s 750 mmHg 91%
    01:00 +7°C° 0 mm 3 m/s 750 mmHg 92%
    02:00 +7°C° 0 mm 3 m/s 750 mmHg 93%
    03:00 +7°C° 0 mm 3 m/s 750 mmHg 94%
    04:00 +7°C° 0 mm 3 m/s 750 mmHg 95%
    05:00 +5°C° 0 mm 3 m/s 750 mmHg 96%
    06:00 +6°C° 0 mm 2 m/s 751 mmHg 96%
    07:00 +6°C° 0 mm 2 m/s 751 mmHg 97%
    08:00 +7°C° 0 mm 3 m/s 751 mmHg 92%
    09:00 +8°C° 0 mm 4 m/s 751 mmHg 87%
    10:00 +10°C° 0 mm 4 m/s 751 mmHg 82%
    11:00 +10°C° 0.1 mm 5 m/s 750 mmHg 79%
    12:00 +12°C° 0.1 mm 5 m/s 750 mmHg 75%
    13:00 +13°C° 0.1 mm 5 m/s 749 mmHg 71%
    14:00 +13°C° 0 mm 5 m/s 749 mmHg 70%
    15:00 +13°C° 0 mm 5 m/s 748 mmHg 68%
    16:00 +13°C° 0 mm 5 m/s 748 mmHg 66%
    17:00 +13°C° 0 mm 5 m/s 748 mmHg 69%
    18:00 +12°C° 0 mm 5 m/s 748 mmHg 72%
    19:00 +12°C° 0 mm 4 m/s 748 mmHg 75%
    20:00 +12°C° 0.1 mm 5 m/s 747 mmHg 75%
    21:00 +12°C° 0.1 mm 5 m/s 747 mmHg 75%
    22:00 +12°C° 0.1 mm 5 m/s 747 mmHg 75%
    23:00 +10°C° 0.1 mm 5 m/s 746 mmHg 78%

    28 Mai, Mardi

    Heure Température Précipitation Vent Pression Humidité
    00:00 +10°C° 0.1 mm 6 m/s 746 mmHg 81%
    01:00 +10°C° 0.1 mm 6 m/s 746 mmHg 84%
    02:00 +10°C° 0.1 mm 6 m/s 745 mmHg 84%
    03:00 +10°C° 0.1 mm 6 m/s 745 mmHg 84%
    04:00 +10°C° 0.1 mm 6 m/s 744 mmHg 85%
    05:00 +10°C° 0.1 mm 6 m/s 744 mmHg 85%
    06:00 +10°C° 0.1 mm 6 m/s 744 mmHg 86%
    07:00 +10°C° 0.1 mm 6 m/s 744 mmHg 86%
    08:00 +11°C° 0.4 mm 7 m/s 744 mmHg 85%
    09:00 +11°C° 0.4 mm 7 m/s 745 mmHg 84%
    10:00 +11°C° 0.4 mm 8 m/s 745 mmHg 83%
    11:00 +11°C° 0.7 mm 8 m/s 744 mmHg 82%
    12:00 +12°C° 0.7 mm 8 m/s 744 mmHg 80%
    13:00 +12°C° 0.7 mm 9 m/s 744 mmHg 79%
    14:00 +11°C° 0.3 mm 8 m/s 744 mmHg 78%
    15:00 +11°C° 0.3 mm 7 m/s 744 mmHg 77%
    16:00 +10°C° 0.3 mm 6 m/s 744 mmHg 76%
    17:00 +9°C° 0 mm 5 m/s 744 mmHg 75%
    18:00 +8°C° 0 mm 5 m/s 745 mmHg 75%
    19:00 +7°C° 0 mm 5 m/s 745 mmHg 75%
    20:00 +7°C° 0 mm 5 m/s 746 mmHg 76%
    21:00 +6°C° 0 mm 5 m/s 746 mmHg 77%
    22:00 +6°C° 0 mm 5 m/s 746 mmHg 78%
    23:00 +6°C° 0.1 mm 5 m/s 746 mmHg 79%
    Voir plus